Satellite: NOAA-12 Catalog number: 21263 Epoch time: 13017.26572078 Element set: 686 Inclination: 098.7117 deg RA of node: 043.7457 deg Eccentricity: 0.0013026 Arg of perigee: 301.2971 deg Mean anomaly: 058.6932 deg Mean motion: 14.25542472 rev/day Decay rate: -6.0e-08 rev/day^2 Epoch rev: 12705 Checksum: 287
Satellite: MET-3/5 Catalog number: 21655 Epoch time: 13017.83411440 Element set: 598 Inclination: 082.5573 deg RA of node: 000.5244 deg Eccentricity: 0.0014220 Arg of perigee: 142.3428 deg Mean anomaly: 217.8693 deg Mean motion: 13.17040793 rev/day Decay rate: 2.29e-06 rev/day^2 Epoch rev: 3014 Checksum: 266
Satellite: MET-2/21 Catalog number: 22782 Epoch time: 13017.63783157 Element set: 639 Inclination: 082.5468 deg RA of node: 222.3552 deg Eccentricity: 0.0021261 Arg of perigee: 270.9055 deg Mean anomaly: 121.3391 deg Mean motion: 13.83696842 rev/day Decay rate: 7.2e-07 rev/day^2 Epoch rev: 97882 Checksum: 314
Satellite: OKEAN-4 Catalog number: 23317 Epoch time: 13017.24804379 Element set: 113 Inclination: 082.5383 deg RA of node: 191.0146 deg Eccentricity: 0.0021852 Arg of perigee: 009.2490 deg Mean anomaly: 350.9129 deg Mean motion: 14.84207386 rev/day Decay rate: 1.105e-05 rev/day^2 Epoch rev: 98655 Checksum: 288
Satellite: NOAA-14 Catalog number: 23455 Epoch time: 13017.39958532 Element set: 167 Inclination: 098.8128 deg RA of node: 104.0715 deg Eccentricity: 0.0010301 Arg of perigee: 068.2258 deg Mean anomaly: 292.0010 deg Mean motion: 14.13890106 rev/day Decay rate: 3.3e-07 rev/day^2 Epoch rev: 93106 Checksum: 267
Satellite: NOAA-15 Catalog number: 25338 Epoch time: 13016.98351306 Element set: 576 Inclination: 098.7110 deg RA of node: 008.1121 deg Eccentricity: 0.0010239 Arg of perigee: 203.5155 deg Mean anomaly: 156.5552 deg Mean motion: 14.25169754 rev/day Decay rate: 2.08e-06 rev/day^2 Epoch rev: 76330 Checksum: 278
Satellite: RESURS Catalog number: 25394 Epoch time: 13017.11367069 Element set: 284 Inclination: 098.3444 deg RA of node: 000.3391 deg Eccentricity: 0.0001147 Arg of perigee: 028.2948 deg Mean anomaly: 029.9235 deg Mean motion: 14.24317701 rev/day Decay rate: 3.7e-07 rev/day^2 Epoch rev: 75485 Checksum: 285
Satellite: FENGYUN1 Catalog number: 25730 Epoch time: 13016.50945602 Element set: 786 Inclination: 098.8657 deg RA of node: 338.0389 deg Eccentricity: 0.0022622 Arg of perigee: 108.8101 deg Mean anomaly: 011.2302 deg Mean motion: 14.10057656 rev/day Decay rate: 2.265e-05 rev/day^2 Epoch rev: 70466 Checksum: 281
Satellite: OKEAN-0 Catalog number: 25860 Epoch time: 13017.86715157 Element set: 844 Inclination: 097.9700 deg RA of node: 342.5289 deg Eccentricity: 0.0000726 Arg of perigee: 114.6473 deg Mean anomaly: 278.9533 deg Mean motion: 14.74457169 rev/day Decay rate: 5.06e-06 rev/day^2 Epoch rev: 72620 Checksum: 318
Satellite: NOAA-16 Catalog number: 26536 Epoch time: 13016.98814906 Element set: 55 Inclination: 099.0651 deg RA of node: 068.1001 deg Eccentricity: 0.0010245 Arg of perigee: 198.2450 deg Mean anomaly: 161.8370 deg Mean motion: 14.12829326 rev/day Decay rate: 1.52e-06 rev/day^2 Epoch rev: 63522 Checksum: 282
Satellite: NOAA-17 Catalog number: 27453 Epoch time: 13017.18668993 Element set: 989 Inclination: 098.3206 deg RA of node: 039.2234 deg Eccentricity: 0.0010714 Arg of perigee: 247.5919 deg Mean anomaly: 112.4146 deg Mean motion: 14.24531564 rev/day Decay rate: 2.8e-07 rev/day^2 Epoch rev: 54922 Checksum: 315
Satellite: NOAA-18 Catalog number: 28654 Epoch time: 13017.10914237 Element set: 471 Inclination: 099.0783 deg RA of node: 343.3182 deg Eccentricity: 0.0013581 Arg of perigee: 274.0800 deg Mean anomaly: 085.8828 deg Mean motion: 14.11759293 rev/day Decay rate: 1.87e-06 rev/day^2 Epoch rev: 39474 Checksum: 318
Satellite: NOAA-19 Catalog number: 33591 Epoch time: 13017.02341933 Element set: 656 Inclination: 098.8893 deg RA of node: 320.4004 deg Eccentricity: 0.0014639 Arg of perigee: 134.7778 deg Mean anomaly: 225.4586 deg Mean motion: 14.11448512 rev/day Decay rate: 4.64e-06 rev/day^2 Epoch rev: 20317 Checksum: 303
/EX SB KEPS @ AMSAT $ORB13017.M Orbital Elements 13017.MISC
HR AMSAT ORBITAL ELEMENTS FOR MANNED AND MISCELLANEOUS SATELLITES FROM WA5QGD FORT WORTH,TX January 17, 2013 BID: ORB13017.M TO ALL RADIO AMATEURS BT
Satellite: HUBBLE Catalog number: 20580 Epoch time: 13017.82314684 Element set: 156 Inclination: 028.4685 deg RA of node: 178.2267 deg Eccentricity: 0.0003720 Arg of perigee: 185.7028 deg Mean anomaly: 174.3522 deg Mean motion: 15.03218975 rev/day Decay rate: 1.692e-05 rev/day^2 Epoch rev: 4704 Checksum: 290
Satellite: ISS Catalog number: 25544 Epoch time: 13017.83619478 Element set: 45 Inclination: 051.6476 deg RA of node: 135.2242 deg Eccentricity: 0.0013593 Arg of perigee: 171.0898 deg Mean anomaly: 329.3495 deg Mean motion: 15.51935117 rev/day Decay rate: 6.8784e-04 rev/day^2 Epoch rev: 81135 Checksum: 321
Satellite: CO-58 Catalog number: 28895 Epoch time: 13017.61757936 Element set: 382 Inclination: 097.8852 deg RA of node: 240.1352 deg Eccentricity: 0.0017477 Arg of perigee: 192.9153 deg Mean anomaly: 167.1607 deg Mean motion: 14.60936345 rev/day Decay rate: 7.29e-06 rev/day^2 Epoch rev: 38496 Checksum: 353
Satellite: FALCON Catalog number: 30776 Epoch time: 13017.18997375 Element set: 530 Inclination: 035.4322 deg RA of node: 047.9898 deg Eccentricity: 0.0000847 Arg of perigee: 115.3700 deg Mean anomaly: 308.3274 deg Mean motion: 15.09380650 rev/day Decay rate: 5.241e-05 rev/day^2 Epoch rev: 32258 Checksum: 296
Satellite: MAST Catalog number: 31126 Epoch time: 13017.54523025 Element set: 660 Inclination: 097.8747 deg RA of node: 022.1325 deg Eccentricity: 0.0093674 Arg of perigee: 161.9045 deg Mean anomaly: 198.5515 deg Mean motion: 14.54410889 rev/day Decay rate: 4.37e-06 rev/day^2 Epoch rev: 30542 Checksum: 290
Satellite: CAPE1 Catalog number: 31130 Epoch time: 13016.51575993 Element set: 671 Inclination: 097.8871 deg RA of node: 017.4817 deg Eccentricity: 0.0100928 Arg of perigee: 179.7228 deg Mean anomaly: 180.4029 deg Mean motion: 14.53272980 rev/day Decay rate: 6.35e-06 rev/day^2 Epoch rev: 30475 Checksum: 309
Satellite: COMPASS Catalog number: 32787 Epoch time: 13017.72034311 Element set: 520 Inclination: 097.7741 deg RA of node: 080.0990 deg Eccentricity: 0.0016320 Arg of perigee: 080.4176 deg Mean anomaly: 065.9701 deg Mean motion: 14.84907850 rev/day Decay rate: 2.517e-05 rev/day^2 Epoch rev: 25563 Checksum: 284
Satellite: AAUSAT2 Catalog number: 32788 Epoch time: 13017.14892140 Element set: 510 Inclination: 097.7746 deg RA of node: 080.0565 deg Eccentricity: 0.0015813 Arg of perigee: 082.1472 deg Mean anomaly: 330.5652 deg Mean motion: 14.85310468 rev/day Decay rate: 2.477e-05 rev/day^2 Epoch rev: 25558 Checksum: 300
Satellite: DO-64 Catalog number: 32789 Epoch time: 13017.76315278 Element set: 533 Inclination: 097.7883 deg RA of node: 083.6148 deg Eccentricity: 0.0015326 Arg of perigee: 075.4362 deg Mean anomaly: 072.5900 deg Mean motion: 14.87460740 rev/day Decay rate: 3.830e-05 rev/day^2 Epoch rev: 25575 Checksum: 328
Satellite: CO-66 Catalog number: 32791 Epoch time: 13017.73829295 Element set: 508 Inclination: 097.7743 deg RA of node: 079.6583 deg Eccentricity: 0.0016678 Arg of perigee: 081.2496 deg Mean anomaly: 065.9289 deg Mean motion: 14.84161596 rev/day Decay rate: 1.471e-05 rev/day^2 Epoch rev: 25555 Checksum: 365
Satellite: RS-30 Catalog number: 32953 Epoch time: 13017.79020206 Element set: 511 Inclination: 082.5012 deg RA of node: 161.7006 deg Eccentricity: 0.0018639 Arg of perigee: 198.1234 deg Mean anomaly: 161.9186 deg Mean motion: 12.43030943 rev/day Decay rate: 1.0e-07 rev/day^2 Epoch rev: 21122 Checksum: 245
Satellite: METEOR-M Catalog number: 35865 Epoch time: 13017.70633532 Element set: 146 Inclination: 098.6261 deg RA of node: 073.6720 deg Eccentricity: 0.0002827 Arg of perigee: 134.6791 deg Mean anomaly: 225.4610 deg Mean motion: 14.21878641 rev/day Decay rate: -7.0e-08 rev/day^2 Epoch rev: 17308 Checksum: 287
Satellite: RS-38 Catalog number: 35869 Epoch time: 13017.62398464 Element set: 109 Inclination: 098.6200 deg RA of node: 073.5451 deg Eccentricity: 0.0004809 Arg of perigee: 141.5650 deg Mean anomaly: 218.5876 deg Mean motion: 14.22109433 rev/day Decay rate: 4.1e-07 rev/day^2 Epoch rev: 17309 Checksum: 301
Satellite: JUGNU Catalog number: 37839 Epoch time: 13017.70713468 Element set: 314 Inclination: 019.9600 deg RA of node: 138.5774 deg Eccentricity: 0.0019875 Arg of perigee: 065.8796 deg Mean anomaly: 294.3671 deg Mean motion: 14.12120617 rev/day Decay rate: 6.20e-06 rev/day^2 Epoch rev: 6560 Checksum: 308
Satellite: SRMSAT Catalog number: 37841 Epoch time: 13017.70041436 Element set: 314 Inclination: 019.9716 deg RA of node: 147.7082 deg Eccentricity: 0.0011727 Arg of perigee: 025.6942 deg Mean anomaly: 334.4068 deg Mean motion: 14.10194937 rev/day Decay rate: 2.64e-06 rev/day^2 Epoch rev: 6550 Checksum: 280
Satellite: RAX-2 Catalog number: 37853 Epoch time: 13017.89160400 Element set: 401 Inclination: 101.7089 deg RA of node: 162.1180 deg Eccentricity: 0.0239278 Arg of perigee: 097.8198 deg Mean anomaly: 265.0210 deg Mean motion: 14.82203924 rev/day Decay rate: 6.135e-05 rev/day^2 Epoch rev: 6617 Checksum: 286
Satellite: AUBIESAT Catalog number: 37854 Epoch time: 13017.17144279 Element set: 399 Inclination: 101.7114 deg RA of node: 161.6398 deg Eccentricity: 0.0239472 Arg of perigee: 098.9146 deg Mean anomaly: 263.9239 deg Mean motion: 14.82786189 rev/day Decay rate: 6.727e-05 rev/day^2 Epoch rev: 6607 Checksum: 345
